Weather in Dubovoye

Russia / Lipetsk Oblast     52°23′00″N   40°18′28″E
temp.,
°C
wind,
m/s
gust,
m/s
humid.,
%
clouds,
%
prec.,
mm/h
press.,
hPa
HPBL,
m
8 august, mon
mon800:00+23ene223861 0.0 101814
03:00+21s1142100 0.0 101812
06:00+21sse224281 0.0 101920
09:00+26ene113594 0.0 1019232
12:00+31e1126100 0.0 10191321
15:00+32e1221100 0.0 10193379
18:00+30e122962 0.0 101857
21:00+23se453719 0.0 101962
9 august, tue
tue900:00+21sse22404 0.0 101916
03:00+20nne114741 0.0 101911
06:00+20ese2252100 0.0 101919
09:00+26sse23375 0.0 1018398
12:00+30s332960 0.0 10171126
15:00+32sw552574 0.0 10163092
18:00+28wsw453896 0.0 1017424
21:00+22wnw486477 0.3 1017171
10 august, wed
wed1000:00+19nnw4887100 0.6 1017177
03:00+17n359386 1.0 1017127
06:00+17nnw3591100 0.0 1018146
09:00+21nnw337290 0.3 1018397
12:00+26nnw435151 0.0 1018916
15:00+28n434489 0.0 10171351
18:00+26n5548100 0.0 10181013
21:00+22nne6116186 0.0 1018392
11 august, thu
thu1100:00+19nne51171100 0.0 1019353
03:00+17ne51180100 0.3 1020338
06:00+17ne41087100 1.1 1021318
09:00+21ne6768100 1.6 1021565
12:00+25ene674785 0.3 10211088
15:00+28ene563975 0.3 10201375
18:00+27ne564112 0.0 1020843
21:00+22ne5114813 0.0 1021252
12 august, fri
fri1200:00+20ene4105592 0.0 1021237
03:00+18ene496160 0.0 1022183
06:00+18e410665 0.0 1023235
09:00+24e565045 0.0 1023552
12:00+28e553955 0.0 10221221
15:00+30e443432 0.0 10211696
18:00+30e343514 0.0 1021353
21:00+24ene4645100 0.0 102291